This demonstration page uses our WeatherBlox Daily Observations layout. Learn more.

Left ArrowRight Arrow

41.55636, -103.73856

Hourly Observations for May 7, 2020

Temp ( °F °C ) Dew Point ( °F °C ) Humidity (%) Winds ( mph kmh ) Pressure ( in mb ) Visibility ( mi km ) Precip ( " mm )
12:58 am 00:58 Clear 63 17.2 32 undefined 31 31 SE 15 24 30.05 1018 10 16 N/A
1:58 am 01:58 Clear 57 14.1 33 0.7 40 40 SE 14 22 30.04 1017 10 16 N/A
2:58 am 02:58 Mostly Cloudy 55 12.7 34 1.3 46 46 SE 16 26 30.04 1017 10 16 N/A
3:58 am 03:58 Mostly Cloudy 54 12.4 32 0.1 43 43 SSE 29 46 30.01 1016 10 16 N/A
4:58 am 04:58 Mostly Clear 51 10.5 33 0.5 50 50 SSE 21 33 30.01 1016 10 16 N/A
5:58 am 05:58 Clear 49 9.6 33 0.6 54 54 S 37 59 29.94 1014 10 16 N/A
6:58 am 06:58 Mostly Cloudy 48 9 33 0.4 55 55 S 33 54 29.91 1013 10 16 N/A
7:58 am 07:58 Mostly Clear 48 8.7 33 0.5 57 57 S 36 57 29.87 1012 10 16 N/A
8:58 am 08:58 Mostly Clear 48 9.1 34 0.9 57 57 SSW 26 43 29.88 1012 10 16 N/A
9:58 am 09:58 Clear 49 9.2 34 0.9 56 56 SSW 23 37 29.87 1012 10 16 N/A
10:58 am 10:58 Clear 46 8 34 1.2 63 63 SSW 25 41 29.87 1012 10 16 N/A
11:58 am 11:58 Sunny 48 9.1 31 -0.3 52 52 WNW 20 31 29.92 1013 10 16 N/A
12:58 pm 12:58 Sunny 44 6.8 34 1 67 67 NW 21 33 29.97 1015 10 16 N/A
1:58 pm 13:58 Sunny 46 8 29 -1.4 52 52 NW 24 39 30.00 1016 10 16 N/A
2:58 pm 14:58 Sunny 49 9.6 26 -3.2 41 41 NNW 24 39 29.99 1016 10 16 N/A
3:58 pm 15:58 Sunny 53 11.7 26 -3.2 35 35 NNW 18 30 29.96 1015 10 16 N/A
4:58 pm 16:58 Sunny 54 12.2 24 -4.5 31 31 NNW 17 28 29.96 1015 10 16 N/A
5:58 pm 17:58 Sunny 56 13.2 26 -3.2 32 32 N 13 20 29.95 1014 10 16 N/A
6:58 pm 18:58 Sunny 58 14.4 25 -3.8 28 28 N 21 33 29.91 1013 10 16 N/A
7:58 pm 19:58 Mostly Sunny 56 13.5 28 -2.5 33 33 N 29 46 29.95 1014 10 16 N/A
8:58 pm 20:58 Mostly Sunny 56 13.4 26 -3.4 31 31 N 21 33 29.95 1014 10 16 N/A
9:58 pm 21:58 Mostly Sunny 59 15.2 15 -9.7 17 17 NW 28 44 29.94 1014 10 16 N/A
10:58 pm 22:58 Mostly Sunny 57 13.8 16 -8.9 20 20 NNW 36 57 29.99 1016 10 16 N/A
11:58 pm 23:58 Mostly Sunny 52 11 25 -3.7 36 36 N 30 48 30.06 1018 10 16 N/A

Powered by AerisWeather